Fredericksburg, VA

6:11 AM EST on December 09, 2019 (GMT -0500)
Shannon

Weather History for KEZF - October, 2019

Change the Weather History Date:

Friday, October 18, 2019

  Actual Average (KNYG) Record (KNYG)
Temperature  
Mean Temperature 52 °F -  
Max Temperature 65 °F 63 °F 80 °F (2005)
Min Temperature 40 °F 45 °F 35 °F (2001)
Degree Days  
Heating Degree Days 12    
Growing Degree Days 2 (Base 50)    
Moisture  
Dew Point 40 °F    
Average Humidity 66    
Maximum Humidity 97    
Minimum Humidity 39    
Precipitation  
Precipitation 0.00 in - - ()
Sea Level Pressure  
Sea Level Pressure 29.97 in    
Wind  
Wind Speed 6 mph ()    
Max Wind Speed 15 mph    
Max Gust Speed 24 mph    
Visibility 9.8 miles    
Events      
Averages and records for this station are not official NWS values.
T = Trace of Precipitation, MM = Missing Value Source: Averaged Metar Reports

Daily Weather History Graph

Daily Weather History Graph

Search for Another Location

Airport or City:

Astronomy

Oct. 18, 2019 Rise Set
Actual Time 7:21 AM EDT 6:28 PM EDT
Civil Twilight 6:54 AM EDT 6:54 PM EDT
Nautical Twilight 6:23 AM EDT 7:25 PM EDT
Astronomical Twilight 5:53 AM EDT 7:55 PM EDT
Moon 9:46 PM EDT (10/18) 11:49 AM EDT (10/18)
Length of Visible Light 12h 00m
Length of Day
11h 06m
Waning Gibbous, 79% of the Moon is Illuminated
Oct 18
Waning Gibbous
Oct 21
Last Quarter
Oct 27
New
Nov 4
First Quarter
Nov 12
Full

Hourly Weather History & Observations

Time (EDT) Temp. Windchill Dew Point Humidity Pressure Visibility Wind Dir Wind Speed Gust Speed Precip Events Conditions
12:15 AM 51.1 °F - 38.5 °F 62% 29.87 in 10.0 mi NW 10.4 mph 17.3 mph N/A   Clear
12:35 AM 51.1 °F - 38.3 °F 62% 29.86 in 10.0 mi WNW 11.5 mph 18.4 mph N/A   Clear
12:55 AM 50.7 °F - 38.3 °F 62% 29.87 in 10.0 mi WNW 5.8 mph - N/A   Clear
1:15 AM 49.3 °F - 38.7 °F 67% 29.88 in 10.0 mi WNW 5.8 mph - N/A   Clear
1:35 AM 48.6 °F - 38.7 °F 69% 29.88 in 10.0 mi WNW 5.8 mph - N/A   Clear
1:55 AM 48.6 °F - 38.8 °F 69% 29.87 in 10.0 mi West 8.1 mph - N/A   Clear
2:15 AM 48.2 °F - 38.5 °F 69% 29.88 in 10.0 mi WSW 5.8 mph - N/A   Clear
2:35 AM 47.7 °F - 38.3 °F 70% 29.87 in 10.0 mi WNW 8.1 mph - N/A   Clear
2:55 AM 47.7 °F - 38.1 °F 70% 29.87 in 10.0 mi WNW 8.1 mph - N/A   Clear
3:15 AM 48.4 °F - 37.9 °F 67% 29.87 in 10.0 mi NW 6.9 mph - N/A   Clear
3:35 AM 48.6 °F - 37.6 °F 66% 29.88 in 10.0 mi Calm Calm - N/A   Clear
3:55 AM 43.7 °F 40.3 °F 38.5 °F 82% 29.88 in 4.0 mi SSW 5.8 mph - N/A   Haze
4:15 AM 44.6 °F 41.4 °F 38.3 °F 79% 29.89 in 10.0 mi West 5.8 mph - N/A   Clear
4:35 AM 44.4 °F 40.0 °F 39.0 °F 81% 29.90 in 10.0 mi WNW 8.1 mph - N/A   Clear
4:55 AM 46.4 °F 44.3 °F 37.8 °F 72% 29.90 in 10.0 mi NW 4.6 mph - N/A   Clear
5:15 AM 45.7 °F 42.7 °F 38.5 °F 76% 29.91 in 10.0 mi WNW 5.8 mph - N/A   Clear
5:35 AM 44.8 °F - 38.3 °F 78% 29.91 in 10.0 mi Calm Calm - N/A   Clear
5:55 AM 41.4 °F 38.4 °F 38.5 °F 89% 29.93 in 10.0 mi West 4.6 mph - N/A   Clear
6:15 AM 42.3 °F 40.5 °F 38.3 °F 86% 29.94 in 10.0 mi West 3.5 mph - N/A   Clear
6:35 AM 42.1 °F 38.4 °F 38.3 °F 86% 29.95 in 10.0 mi WSW 5.8 mph - N/A   Clear
6:55 AM 43.2 °F - 37.9 °F 82% 29.96 in 10.0 mi Calm Calm - N/A   Clear
7:15 AM 41.9 °F 40.0 °F 38.3 °F 87% 29.96 in 10.0 mi West 3.5 mph - N/A   Clear
7:35 AM 41.7 °F 38.8 °F 38.7 °F 89% 29.96 in 10.0 mi West 4.6 mph - N/A   Clear
7:55 AM 40.3 °F - 37.8 °F 91% 29.97 in 10.0 mi Calm Calm - N/A   Clear
8:15 AM 43.0 °F - 40.5 °F 91% 29.97 in 7.0 mi Calm Calm - N/A   Clear
8:35 AM 47.7 °F - 40.5 °F 76% 29.99 in 10.0 mi West 3.5 mph - N/A   Clear
8:55 AM 50.2 °F - 40.3 °F 69% 29.99 in 10.0 mi Calm Calm - N/A   Clear
9:15 AM 51.8 °F - 39.9 °F 64% 29.99 in 10.0 mi WNW 5.8 mph - N/A   Clear
9:35 AM 52.7 °F - 39.2 °F 60% 29.99 in 10.0 mi West 6.9 mph - N/A   Clear
9:55 AM 54.3 °F - 40.3 °F 59% 29.99 in 10.0 mi WNW 9.2 mph - N/A   Clear
10:15 AM 55.4 °F - 39.7 °F 56% 29.99 in 10.0 mi NW 6.9 mph 18.4 mph N/A   Clear
10:35 AM 56.7 °F - 38.8 °F 51% 29.99 in 10.0 mi NW 11.5 mph 23.0 mph N/A   Clear
10:55 AM 57.4 °F - 39.2 °F 51% 29.99 in 10.0 mi NNW 9.2 mph - N/A   Clear
11:15 AM 58.1 °F - 39.2 °F 49% 29.99 in 10.0 mi NW 11.5 mph 19.6 mph N/A   Clear
11:35 AM 58.3 °F - 38.3 °F 47% 29.99 in 10.0 mi NNW 8.1 mph 24.2 mph N/A   Clear
11:55 AM 60.3 °F - 39.4 °F 46% 29.98 in 10.0 mi WNW 13.8 mph 19.6 mph N/A   Clear
12:15 PM 60.1 °F - 38.8 °F 45% 29.99 in 10.0 mi NNW 8.1 mph 24.2 mph N/A   Clear
12:35 PM 60.3 °F - 39.0 °F 45% 29.99 in 10.0 mi NW 12.7 mph 24.2 mph N/A   Clear
12:55 PM 61.3 °F - 38.8 °F 43% 29.99 in 7.0 mi NW 12.7 mph 21.9 mph N/A   Clear
1:15 PM 61.9 °F - 39.0 °F 43% 29.99 in 10.0 mi NNW 12.7 mph 23.0 mph N/A   Clear
1:35 PM 62.1 °F - 40.3 °F 45% 29.98 in 7.0 mi NW 11.5 mph 20.7 mph N/A   Clear
1:55 PM 63.0 °F - 39.9 °F 43% 29.97 in 10.0 mi NW 10.4 mph 18.4 mph N/A   Clear
2:15 PM 63.3 °F - 40.1 °F 43% 29.96 in 10.0 mi NW 15.0 mph 19.6 mph N/A   Clear
2:55 PM 63.9 °F - 38.8 °F 40% 29.96 in 10.0 mi NNW 11.5 mph 21.9 mph N/A   Clear
3:15 PM 64.8 °F - 39.9 °F 40% 29.94 in 10.0 mi NNW 8.1 mph - N/A   Clear
3:35 PM 64.9 °F - 39.7 °F 40% 29.95 in 10.0 mi NW 9.2 mph 18.4 mph N/A   Clear
3:55 PM 65.5 °F - 39.6 °F 39% 29.96 in 10.0 mi NW 12.7 mph 17.3 mph N/A   Clear
4:15 PM 64.9 °F - 39.2 °F 39% 29.97 in 10.0 mi NW 15.0 mph 23.0 mph N/A   Clear
4:35 PM 64.4 °F - 39.2 °F 40% 29.97 in 10.0 mi NNW 8.1 mph 18.4 mph N/A   Clear
4:55 PM 64.0 °F - 39.2 °F 40% 29.98 in 10.0 mi NW 8.1 mph - N/A   Clear
5:15 PM 63.7 °F - 39.4 °F 41% 29.98 in 10.0 mi NW 10.4 mph - N/A   Clear
5:35 PM 62.6 °F - 39.6 °F 43% 29.99 in 10.0 mi WNW 8.1 mph - N/A   Clear
5:55 PM 61.7 °F - 39.4 °F 44% 29.99 in 10.0 mi NW 6.9 mph - N/A   Clear
6:15 PM 60.4 °F - 39.7 °F 46% 30.00 in 10.0 mi WNW 5.8 mph - N/A   Clear
6:35 PM 58.3 °F - 40.6 °F 52% 30.01 in 10.0 mi WNW 3.5 mph - N/A   Clear
6:55 PM 56.3 °F - 42.6 °F 60% 30.02 in 10.0 mi West 4.6 mph - N/A   Clear
7:15 PM 55.2 °F - 43.0 °F 63% 30.02 in 10.0 mi NNW 3.5 mph - N/A   Clear
7:35 PM 52.5 °F - 44.4 °F 74% 30.03 in 10.0 mi NW 4.6 mph - N/A   Clear
7:55 PM 50.0 °F - 43.7 °F 79% 30.04 in 10.0 mi Calm Calm - N/A   Clear
8:15 PM 48.9 °F - 43.7 °F 82% 30.04 in 10.0 mi Calm Calm - N/A   Clear
8:35 PM 47.3 °F - 43.2 °F 86% 30.04 in 10.0 mi Calm Calm - N/A   Clear
8:55 PM 47.7 °F - 44.1 °F 87% 30.04 in 10.0 mi Calm Calm - N/A   Clear
9:15 PM 46.8 °F - 43.3 °F 88% 30.05 in 10.0 mi Calm Calm - N/A   Clear
9:35 PM 46.4 °F - 43.0 °F 88% 30.05 in 10.0 mi Calm Calm - N/A   Clear
9:55 PM 45.5 °F 44.2 °F 43.5 °F 93% 30.05 in 10.0 mi West 3.5 mph - N/A   Clear
10:15 PM 44.8 °F - 43.0 °F 93% 30.06 in 10.0 mi Calm Calm - N/A   Clear
10:35 PM 43.9 °F - 42.3 °F 94% 30.06 in 10.0 mi Calm Calm - N/A   Clear
10:55 PM 43.3 °F - 42.6 °F 97% 30.05 in 10.0 mi Calm Calm - N/A   Clear
11:15 PM 42.4 °F - 41.5 °F 97% 30.05 in 10.0 mi Calm Calm - N/A   Clear
11:35 PM 42.4 °F - 41.7 °F 97% 30.05 in 10.0 mi Calm Calm - N/A   Clear